{"data":{"norad_id":66511,"intl_designator":"2025-263AC","name":"STARLINK-35444","alt_names":[],"object_type":"PAYLOAD","status":"ACTIVE","operator":null,"country":"US","launch_date":"2025-11-15","launch_site_code":"AFETR","launch_vehicle":null,"mission":null,"orbit_class":"UNKNOWN","rcs_meters":null,"size_class":null,"mass_kg":null,"dimensions":null,"purposes":["comms"],"wikipedia_slug":null,"has_3d_model":false,"image_url":null,"decayed_at":null,"tle_current":{"epoch":"2026-05-25T01:58:12.630432Z","epoch_age_seconds":78438,"freshness":"FRESH","line1":"1 66511U 25263AC  26145.08209063  .00013100  00000+0  48465-3 0  9997","line2":"2 66511  42.9998 279.1356 0000188   4.9983 355.0870 15.27583326 30581","mean_motion":15.27583326,"eccentricity":1.88e-5,"inclination_deg":42.9998,"raan_deg":279.1356,"arg_perigee_deg":4.9983,"mean_anomaly_deg":355.087,"bstar":0.00048465,"rev_number":3058,"period_min":94.266543467102,"perigee_km":482.91014670583,"apogee_km":483.16812692857,"semimajor_km":6861.1761368172,"source":"CELESTRAK","updated_at":"2026-05-25T13:38:21.248049Z"}}}